Powrót do katalogu

FENGYUN 1C DEB

LostPO
NORAD 38133·DEBRIS·🇨🇳 China

Wystrzelony May 10, 1999 z Taiyuan Satellite Launch Center

Loading…

Następne Przeloty (najbliższe 24 godziny)

TLE

NieaktualneSource: Space-Track

Epoka: Jan 19, 2023, 02:44 UTC

1 38133U 99025EQE 23019.11454519  .00009403  00000-0  77198-2 0  9998
2 38133  98.2782 342.1979 0262813 322.5938  35.7171 13.74760257661420

Śledź FENGYUN 1C DEB w czasie rzeczywistym z AllMySat

Download on the App Store